星链-3109 (STARLINK-3109 )

导读

STARLINK-3109是美国SpaceX公司星链星座的一员,于2021年9月14日发射入轨,属于星链低轨互联网卫星组网的组成部分。星链计划旨在通过大规模低轨卫星部署,为全球提供高速低延迟宽带互联网服务,该卫星遵循星链标准设计,配备霍尔推进器可自主规避太空碰撞,服务全球偏远及城市化区域网络接入,助力星链全球覆盖的组网目标。

基本信息
目录编号:
49143
目录名称:
STARLINK-3109
国际标识:
2021-082P
轨道中心:
EARTH
卫星名称:
星链-3109
卫星全名:
星链-3109 (STARLINK-3109 )
卫星状态:
在轨 (已飞行1817 天)
发射日期:
2021-09-14 UTC
国别 :
美国 (US)
星等 :
--
轨道信息
数据来源 国际轨道数据 AOE轨道数据
星历时间 2026-09-04T21:20:51+0800
17小时前
查看轨道信息
2026-09-01T01:00:00+0800
4天前
查看轨道信息
半长轴 6952.665km 6952.632km
偏心率 0.0002796 0.0003303
轨道倾角 70.001° 70.000°
近地点辐角 266.142° 269.309°
升交点赤经 184.826° 194.513°
平近点角 93.942° 232.825°
近地点 572.584km 572.198km
远地点 576.472km 576.792km
周期 96.158分钟 96.158分钟
每日圈数 14.975311 14.975418
详细信息
固有亮度:
5
最大亮度:
2.5
卫星平台:
Starlink v1.5
覆盖范围:
全球
运营商:
太空探索技术公司
运营商所在国:
美国
制造商(研发单位):
太空探索技术公司
制造商所在国:
美国
使用方式:
暂无
卫星简介
星链(Starlink)计划是由太空探索技术公司(SpaceX)提出的一个巨型低轨卫星互联网星座项目,计划在2019年至2024年间在太空搭建由约1.2万颗卫星组成的“星链”网络,其中1584颗将部署在地球上空550千米处的近地轨道,并从2020年开始工作。该卫星仍在工作。
2D轨道图
3D轨道图
轨道高度分析图
轨道倾角分析图
轨道综合分析图
查看轨道综合分析图
交会数据列表
事件ID 空间交会对象 最接近时刻(TCA) 交会距离 交会风险概率(CRP) 交会风险指数(CRI) 操作
CDM_260901-054504-914306-456127
2026-09-01T
05:45:57+0000
0.565 km
远距离
1.541448E-4 高风险 0.79
CDM_260907-140004-914305-528822
2026-09-07T
14:00:02+0000
1.765 km
极远距离
3.433636E-6 低风险 0.46
CDM_260905-184204-914306-709322
2026-09-05T
18:42:00+0000
2.297 km
极远距离
1.710008E-6 低风险 0.4
CDM_260907-112104-914305-566422
2026-09-07T
11:21:51+0000
2.371 km
极远距离
1.688636E-6 低风险 0.4
CDM_260901-013404-914305-595722
2026-09-01T
01:34:35+0000
1.559 km
极远距离
1.395652E-6 低风险 0.38